Austin Straubel International Airport Green Bay US
ICAO: KGRB
IATA: GRB
Category: Large
Scheduled Services: Yes

Elevation: 695 ft
TransAlt. 18000 ft.

Airport Communications:
GREEN BAY APP:119.4
ATIS:124.1
CLNC DEL:121.75
CTAF:118.7
GREEN BAY DEP:126.55
GND:121.9
GREEN BAY RDO:122.2
GREEN BAY TWR:118.7
UNICOM:122.95

KGRB Zoom In..

If you have problems with the map follow the link
https://www.worldairports.se/pages/airport.php?
ICAO=KGRB

Runways:

(A) RW 06 length 7699 ft width 150 ft
ILS 109.50 / hdg 62

(B) RW 18 length 8699 ft width 150 ft
---- / hdg 182

(C) RW 24 length 7699 ft width 150 ft
---- / hdg 242

(D) RW 36 length 8699 ft width 150 ft
ILS 109.90 / hdg 2

Location; KGRB
Day. 18 / Time. 21.53 Zulu
* Altimeter: 30.24
* Temperature: -07° c. -19.4°f.
* Wind from: 080° Speed 07 kn.
Dewpoint: -14° c.
Visibility: 10 Statute Miles.
Clouds: Overcast 9000 ft.

KGRB 182153Z 08007KT 10SM OVC090 M07/M14 A3024 RMK AO2 SLP254 T10721139


Wind From 080°
Speed 07 kn.

 
 
jpsmedia.com for Web Design worldairports.se 2019   terms of use